This is the latest recevied weather packets stored in our database for station/object WB3EGK. If no packets are shown the sender has not sent any weather packets the latest 10 day(s).
| Time | Temp. | Humidity | Pressure | Rain* | Wind** | Luminosity | Snow |
|---|---|---|---|---|---|---|---|
| 1778190432 | 11.11° C | 1% | 1008.6 hPa | 0 mm | - | 135 W/m² | - |
| 1778190129 | 11.11° C | 1% | 1008.5 hPa | 0 mm | - | 128 W/m² | - |
| 1778189824 | 11.67° C | 1% | 1008.6 hPa | 0 mm | - | 155 W/m² | - |
| 1778189522 | 11.67° C | 1% | 1008.2 hPa | 0 mm | - | 147 W/m² | - |
| 1778189218 | 11.67° C | 1% | 1008.4 hPa | 0 mm | - | 242 W/m² | - |
| 1778188915 | 11.67° C | 1% | 1008.3 hPa | 0 mm | - | 117 W/m² | - |
| 1778188612 | 11.67° C | 1% | 1008 hPa | 0 mm | - | 120 W/m² | - |
| 1778188307 | 12.78° C | 1% | 1008.3 hPa | 0 mm | - | 188 W/m² | - |
| 1778188005 | 12.22° C | 1% | 1008 hPa | 0 mm | - | 253 W/m² | - |
| 1778187701 | 12.78° C | 1% | 1008.1 hPa | 0 mm | - | 514 W/m² | - |
| 1778187398 | 13.33° C | 1% | 1007.9 hPa | 0 mm | - | 511 W/m² | - |
| 1778187095 | 13.33° C | 1% | 1008.1 hPa | 0 mm | - | 521 W/m² | - |
| 1778186791 | 13.33° C | 1% | 1007.9 hPa | 0 mm | - | 561 W/m² | - |
| 1778186489 | 12.78° C | 1% | 1007.9 hPa | 0 mm | - | 646 W/m² | - |
| 1778186186 | 12.22° C | 1% | 1008 hPa | 0 mm | - | 654 W/m² | - |
| 1778185883 | 11.67° C | 1% | 1008.1 hPa | 0 mm | - | 518 W/m² | - |
| 1778185579 | 11.11° C | 1% | 1008.1 hPa | 0 mm | - | 215 W/m² | - |
| 1778185276 | 11.67° C | 1% | 1008.2 hPa | 0 mm | - | 196 W/m² | - |
| 1778184971 | 11.67° C | 1% | 1008.4 hPa | 0 mm | - | 184 W/m² | - |
| 1778184668 | 11.67° C | 1% | 1008.3 hPa | 0 mm | - | 201 W/m² | - |
| 1778184363 | 11.67° C | 1% | 1008.4 hPa | 0 mm | - | 295 W/m² | - |
| 1778184060 | 11.67° C | 1% | 1008.5 hPa | 0 mm | - | 257 W/m² | - |
| 1778183757 | 11.67° C | 1% | 1008.2 hPa | 0 mm | - | 207 W/m² | - |
| 1778183454 | 11.67° C | 1% | 1008.5 hPa | 0 mm | - | 212 W/m² | - |
| 1778183150 | 11.67° C | 1% | 1008.6 hPa | 0 mm | - | 672 W/m² | - |
* Rain latest hour (hover to see other rain measurements)
** Current wind speed in m/s (hover to see current wind gust speed)